Location: Christianberg
(48.9086°N, 14.0209°E)
Time: 18:45:28
(UTC+00:00)

FENGYUN 1C DEB - Pass Details

Date: 29 January 2022
Orbit: 832 x 1169 km, 98.6° (Epoch: 26 May)

Event Time Altitude Azimuth Distance (km) Brightness Sun altitude
Rises 18:50:05 0° 1° (N) 3,487 ? -28.5°
Reaches altitude 10° 18:53:59 10° 333° (NNW) 2,604 ? -29.1°
Maximum altitude 18:56:14 12° 310° (NW) 2,466 ? -29.5°
Drops below altitude 10° 18:58:32 10° 287° (WNW) 2,680 ? -29.9°
Sets 19:02:42 0° 260° (W) 3,703 ? -30.6°
